Location: Laura�t
(43.9341°N, 0.2497°E)
Time: 22:54:41
(UTC+00:00)

Okean-O - Pass Details

Date: 03 March 2021
Orbit: 639 x 640 km, 98.2° (Epoch: 17 April)

Event Time Altitude Azimuth Distance (km) Brightness Sun altitude
Rises 18:21:08 0° 153° (SSE) 2,932 5.8 -6.4°
Reaches altitude 10° 18:23:21 10° 149° (SSE) 2,028 4.9 -6.8°
Maximum altitude 18:27:40 55° 73° (ENE) 775 2.7 -7.5°
Drops below altitude 10° 18:32:00 10° 355° (N) 2,043 5.3 -8.3°
Sets 18:34:15 0° 352° (N) 2,957 6.2 -8.7°
